TimeEDT,TemperatureF,Dew PointF,Humidity,Sea Level PressureIn,VisibilityMPH,Wind Direction,Wind SpeedMPH,Gust SpeedMPH,PrecipitationIn,Events,Conditions,WindDirDegrees,DateUTC
12:53 AM,48.9,30.9,50,30.08,10.0,South,11.5,-,N/A,,Overcast,180,2013-03-10 05:53:00
1:53 AM,48.9,30.0,48,30.06,10.0,South,15.0,-,N/A,,Scattered Clouds,170,2013-03-10 06:53:00
3:53 AM,46.9,30.9,54,30.03,10.0,South,13.8,-,N/A,,Clear,170,2013-03-10 07:53:00
4:53 AM,48.9,30.0,48,30.01,10.0,South,11.5,-,N/A,,Mostly Cloudy,190,2013-03-10 08:53:00
5:53 AM,48.9,30.9,50,30.03,10.0,South,15.0,-,N/A,,Overcast,180,2013-03-10 09:53:00
6:53 AM,48.9,30.9,50,30.04,10.0,South,13.8,-,N/A,,Overcast,190,2013-03-10 10:53:00
8:53 AM,48.9,34.0,56,30.06,10.0,South,12.7,-,N/A,,Mostly Cloudy,180,2013-03-10 12:53:00
9:53 AM,51.1,34.0,52,30.06,10.0,South,10.4,-,N/A,,Clear,190,2013-03-10 13:53:00
10:53 AM,57.0,35.1,44,30.04,10.0,SSW,15.0,-,N/A,,Clear,200,2013-03-10 14:53:00
11:53 AM,60.1,35.1,39,30.02,10.0,SW,18.4,28.8,N/A,,Clear,220,2013-03-10 15:53:00
12:53 PM,64.0,36.0,35,29.99,10.0,SSW,18.4,26.5,N/A,,Clear,200,2013-03-10 16:53:00
1:53 PM,66.0,37.9,36,29.99,10.0,SSW,16.1,26.5,N/A,,Clear,200,2013-03-10 17:53:00
2:53 PM,66.0,36.0,33,29.96,10.0,SSW,12.7,21.9,N/A,,Clear,200,2013-03-10 18:53:00
3:53 PM,66.9,37.0,33,29.95,10.0,SSW,16.1,24.2,N/A,,Clear,210,2013-03-10 19:53:00
4:53 PM,68.0,35.1,30,29.95,10.0,SW,18.4,25.3,N/A,,Clear,220,2013-03-10 20:53:00
5:53 PM,66.9,33.1,28,29.91,10.0,South,11.5,-,N/A,,Clear,190,2013-03-10 21:53:00
6:23 PM,66.2,35.6,32,29.92,10.0,North,-9999.0,-,N/A,,Clear,0,2013-03-10 22:23:00
6:53 PM,64.9,37.0,36,29.92,10.0,North,-9999.0,-,N/A,,Clear,0,2013-03-10 22:53:00
7:53 PM,61.0,36.0,39,29.92,10.0,South,5.8,-,N/A,,Clear,170,2013-03-10 23:53:00
8:53 PM,57.9,37.0,46,29.89,10.0,SSE,9.2,-,N/A,,Clear,160,2013-03-11 00:53:00
9:53 PM,60.1,36.0,41,29.88,10.0,South,9.2,-,N/A,,Clear,170,2013-03-11 01:53:00
10:53 PM,61.0,35.1,38,29.86,10.0,South,10.4,-,N/A,,Clear,170,2013-03-11 02:53:00
11:53 PM,62.1,34.0,35,29.85,10.0,South,12.7,-,N/A,,Clear,180,2013-03-11 03:53:00
12:53 AM,62.1,34.0,35,29.85,10.0,South,16.1,-,N/A,,Clear,190,2013-03-11 04:53:00